Location: Molveno
(46.1500°N, 10.9667°E)
Time: 16:47:17
(UTC+00:00)

Alouette 2 Rocket - Pass Details

Date: 05 July 2020
Orbit: 502 x 2650 km, 79.8° (Epoch: 10 August)

Event Time Altitude Azimuth Distance (km) Brightness Sun altitude
Rises 19:55:42 0° 354° (N) 2,638 7.7 -7.0°
Reaches altitude 10° 19:57:43 10° 2° (N) 1,810 6.6 -7.2°
Maximum altitude 20:01:21 42° 75° (ENE) 903 4.2 -7.7°
Drops below altitude 10° 20:06:07 10° 146° (SE) 2,378 5.9 -8.3°
Enters shadow 20:06:13 10° 147° (SSE) 2,421 5.9 -8.3°
